Location: Buckeye Ditch
(40.9104°N, 122.9517°W)
Time: 13:21:23
(UTC+00:00)

Tiros 1 despin weight - Pass Details

Date: 24 May 2025
Orbit: 563 x 601 km, 48.2° (Epoch: 22 June)

Event Time Altitude Azimuth Distance (km) Brightness Sun altitude
Rises 15:09:58 0° 296° (WNW) 2,842 ? 24.8°
Reaches altitude 10° 15:12:19 10° 290° (WNW) 1,940 ? 25.3°
Maximum altitude 15:16:35 46° 217° (SW) 803 ? 26.1°
Drops below altitude 10° 15:20:51 10° 144° (SE) 1,933 ? 26.9°
Sets 15:23:11 0° 138° (SE) 2,830 ? 27.3°
